START_TIME,STEP,MOV.,M34,t_acc.,L5,t_acc.,L18,t_acc.,L14,t_acc.
1989-08-27T06:00:25.280 ,3,0,0.,12.0,0.,12.0,0.,12.0,0.,12.0
1989-08-27T06:00:37.280 ,3,0,0.,12.0,0.,12.0,0.,12.0,0.,12.0
1989-08-27T06:00:49.280 ,4,1,0.,12.0,0.,12.0,0.,12.0,0.,12.0
1989-08-27T06:01:01.280 ,4,1,0.,12.0,0.,12.0,0.,12.0,0.,12.0
1989-08-27T06:01:13.280 ,4,0,0.,12.0,0.,12.0,0.,12.0,0.,12.0
1989-08-27T06:01:25.280 ,4,0,0.,12.0,0.,12.0,0.,12.0,0.,12.0
1989-08-27T06:01:37.280 ,5,1,0.,12.0,0.,12.0,0.,12.0,0.,12.0
1989-08-27T06:01:49.280 ,5,1,0.,12.0,0.,12.0,0.,12.0,0.,12.0
1989-08-27T06:02:01.280 ,5,0,0.,12.0,0.,12.0,0.,12.0,0.,12.0
1989-08-27T06:02:13.280 ,5,0,0.,12.0,0.,12.0,0.,12.0,0.,12.0
1989-08-27T06:02:25.280 ,6,1,0.,12.0,0.,12.0,0.,12.0,0.,12.0
1989-08-27T06:02:37.280 ,6,1,0.,12.0,0.,12.0,0.,12.0,0.,12.0
1989-08-27T06:02:49.280 ,6,0,0.,12.0,0.,12.0,0.,12.0,0.,12.0
1989-08-27T06:03:01.280 ,6,0,0.,12.0,0.,12.0,0.,12.0,0.,12.0
1989-08-27T06:03:13.280 ,7,1,0.,12.0,0.,12.0,0.,12.0,0.,12.0
1989-08-27T06:03:25.280 ,7,1,0.,12.0,0.,12.0,0.,12.0,0.,12.0
1989-08-27T06:03:37.280 ,7,0,0.,12.0,0.,12.0,0.,12.0,0.,12.0
1989-08-27T06:03:49.280 ,7,0,0.,12.0,0.,12.0,0.,12.0,0.,12.0
1989-08-27T06:04:01.280 ,7,1,0.,12.0,0.,12.0,0.,12.0,0.,12.0
1989-08-27T06:04:13.280 ,7,1,0.,12.0,0.,12.0,0.,12.0,0.,12.0
1989-08-27T06:04:25.280 ,7,0,0.,12.0,0.,12.0,0.,12.0,0.,12.0
1989-08-27T06:04:37.280 ,7,0,0.,12.0,0.,12.0,0.,12.0,0.,12.0
1989-08-27T06:04:49.280 ,6,1,0.,12.0,0.,12.0,0.,12.0,0.,12.0
1989-08-27T06:05:01.280 ,6,1,0.,12.0,0.,12.0,0.,12.0,0.,12.0
1989-08-27T06:05:13.280 ,6,0,0.,12.0,0.,12.0,0.,12.0,0.,12.0
1989-08-27T06:05:25.280 ,6,0,0.,12.0,0.,12.0,0.,12.0,0.,12.0
1989-08-27T06:05:37.280 ,5,1,0.,12.0,0.,12.0,0.,12.0,0.,12.0
1989-08-27T06:05:49.280 ,5,1,0.,12.0,0.,12.0,0.,12.0,0.,12.0
1989-08-27T06:06:01.280 ,5,0,0.,12.0,0.,12.0,0.,12.0,0.,12.0
1989-08-27T06:06:13.280 ,5,0,0.,12.0,0.,12.0,0.,12.0,0.,12.0
1989-08-27T06:06:25.280 ,4,1,0.,12.0,0.,12.0,0.,12.0,0.,12.0
1989-08-27T06:06:37.280 ,4,1,0.,12.0,0.,12.0,0.,12.0,0.,12.0
1989-08-27T06:06:49.280 ,4,0,0.,12.0,0.,12.0,0.,12.0,0.,12.0
1989-08-27T06:07:01.280 ,4,0,0.,12.0,0.,12.0,0.,12.0,0.,12.0
1989-08-27T06:07:13.280 ,3,1,0.,12.0,0.,12.0,0.,12.0,0.,12.0
1989-08-27T06:07:25.280 ,3,1,0.,12.0,0.,12.0,0.,12.0,0.,12.0
1989-08-27T06:07:37.280 ,3,0,0.,12.0,0.,12.0,0.,12.0,0.,12.0
1989-08-27T06:07:49.280 ,3,0,0.,12.0,0.,12.0,0.,12.0,0.,12.0
1989-08-27T06:08:01.280 ,2,1,0.,12.0,0.,12.0,0.,12.0,0.,12.0
1989-08-27T06:08:13.280 ,2,1,0.,12.0,0.,12.0,0.,12.0,0.,12.0
1989-08-27T06:08:25.280 ,2,0,0.,12.0,0.,12.0,0.,12.0,0.,12.0
1989-08-27T06:08:37.280 ,2,0,0.,12.0,0.,12.0,0.,12.0,0.,12.0
1989-08-27T06:08:49.280 ,1,1,0.,12.0,0.,12.0,0.,12.0,0.,12.0
1989-08-27T06:09:01.280 ,1,1,0.,12.0,0.,12.0,0.,12.0,0.,12.0
1989-08-27T06:09:13.280 ,1,0,0.,12.0,0.,12.0,0.,12.0,0.,12.0
1989-08-27T06:09:25.280 ,1,0,0.,12.0,0.,12.0,0.,12.0,0.,12.0
1989-08-27T06:09:37.280 ,0,1,0.,12.0,0.,12.0,0.,12.0,0.,12.0
1989-08-27T06:09:49.280 ,0,1,0.,12.0,0.,12.0,0.,12.0,0.,12.0
1989-08-27T06:10:01.280 ,0,0,0.,12.0,0.,12.0,0.,12.0,0.,12.0
1989-08-27T06:10:13.280 ,0,0,0.,12.0,0.,12.0,0.,12.0,0.,12.0
1989-08-27T06:10:25.280 ,0,1,0.,12.0,0.,12.0,0.,12.0,0.,12.0
1989-08-27T06:10:37.280 ,0,1,0.,12.0,0.,12.0,0.,12.0,0.,12.0
1989-08-27T06:10:49.280 ,0,0,0.,12.0,0.,12.0,0.,12.0,0.,12.0
1989-08-27T06:11:01.280 ,0,0,0.,12.0,0.,12.0,0.,12.0,0.,12.0
1989-08-27T06:11:13.280 ,1,1,0.,12.0,0.,12.0,0.,12.0,0.,12.0
1989-08-27T06:11:25.280 ,1,1,0.,12.0,0.,12.0,0.,12.0,0.,12.0
1989-08-27T06:11:37.280 ,1,0,0.,12.0,0.,12.0,0.,12.0,0.,12.0
1989-08-27T06:11:49.280 ,1,0,0.,12.0,0.,12.0,0.,12.0,0.,12.0
1989-08-27T06:12:01.280 ,2,1,0.,12.0,0.,12.0,0.,12.0,0.,12.0
1989-08-27T06:12:13.280 ,2,1,0.,12.0,0.,12.0,0.,12.0,0.,12.0
1989-08-27T06:12:25.280 ,2,0,0.,12.0,0.,12.0,0.,12.0,0.,12.0
1989-08-27T06:12:37.280 ,2,0,0.,12.0,0.,12.0,0.,12.0,0.,12.0
1989-08-27T06:12:49.280 ,3,1,0.,12.0,0.,12.0,0.,12.0,0.,12.0
1989-08-27T06:13:01.280 ,3,1,0.,12.0,0.,12.0,0.,12.0,0.,12.0
1989-08-27T06:13:13.280 ,3,0,0.,12.0,0.,12.0,0.,12.0,0.,12.0
1989-08-27T06:13:25.280 ,3,0,0.,12.0,0.,12.0,0.,12.0,0.,12.0
1989-08-27T06:13:37.280 ,4,1,0.,12.0,0.,12.0,0.,12.0,0.,12.0
1989-08-27T06:13:49.280 ,4,1,0.,12.0,0.,12.0,0.,12.0,0.,12.0
1989-08-27T06:14:01.280 ,4,0,0.,12.0,0.,12.0,0.,12.0,0.,12.0
1989-08-27T06:14:13.280 ,4,0,0.,12.0,0.,12.0,0.,12.0,0.,12.0
1989-08-27T06:14:25.280 ,5,1,0.,12.0,0.,12.0,0.,12.0,0.,12.0
1989-08-27T06:14:37.280 ,5,1,0.,12.0,0.,12.0,0.,12.0,0.,12.0
1989-08-27T06:14:49.280 ,5,0,0.,12.0,0.,12.0,0.,12.0,0.,12.0
1989-08-27T06:15:01.280 ,5,0,0.,12.0,0.,12.0,0.,12.0,0.,12.0
1989-08-27T06:15:13.280 ,6,1,0.,12.0,0.,12.0,0.,12.0,0.,12.0
1989-08-27T06:15:25.280 ,6,1,0.,12.0,0.,12.0,0.,12.0,0.,12.0
1989-08-27T06:15:37.280 ,6,0,0.,12.0,0.,12.0,0.,12.0,0.,12.0
1989-08-27T06:15:49.280 ,6,0,0.,12.0,0.,12.0,0.,12.0,0.,12.0
1989-08-27T06:16:01.280 ,7,1,0.,12.0,0.,12.0,0.,12.0,0.,12.0
1989-08-27T06:16:13.280 ,7,1,0.,12.0,0.,12.0,0.,12.0,0.,12.0
1989-08-27T06:16:25.280 ,7,0,0.,12.0,0.,12.0,0.,12.0,0.,12.0
1989-08-27T06:16:37.280 ,7,0,0.,12.0,0.,12.0,0.,12.0,0.,12.0
1989-08-27T06:16:49.280 ,7,1,0.,12.0,0.,12.0,0.,12.0,0.,12.0
1989-08-27T06:17:01.280 ,7,1,0.,12.0,0.,12.0,0.,12.0,0.,12.0
1989-08-27T06:17:13.280 ,7,0,0.,12.0,0.,12.0,0.,12.0,0.,12.0
1989-08-27T06:17:25.280 ,7,0,0.,12.0,0.,12.0,0.,12.0,0.,12.0
1989-08-27T06:17:37.280 ,6,1,0.,12.0,0.,12.0,0.,12.0,0.,12.0
1989-08-27T06:17:49.280 ,6,1,0.,12.0,0.,12.0,0.,12.0,0.,12.0
1989-08-27T06:18:01.280 ,6,0,0.,12.0,0.,12.0,0.,12.0,0.,12.0
1989-08-27T06:18:13.280 ,6,0,0.,12.0,0.,12.0,0.,12.0,0.,12.0
1989-08-27T06:18:25.280 ,5,1,0.,12.0,0.,12.0,0.,12.0,0.,12.0
1989-08-27T06:18:37.280 ,5,1,0.,12.0,0.,12.0,0.,12.0,0.,12.0
1989-08-27T06:18:49.280 ,5,0,0.,12.0,0.,12.0,0.,12.0,0.,12.0
1989-08-27T06:19:01.280 ,5,0,0.,12.0,0.,12.0,0.,12.0,0.,12.0
1989-08-27T06:19:13.280 ,4,1,0.,12.0,0.,12.0,0.,12.0,0.,12.0
1989-08-27T06:19:25.280 ,4,1,0.,12.0,0.,12.0,0.,12.0,0.,12.0
1989-08-27T06:19:37.280 ,4,0,0.,12.0,0.,12.0,0.,12.0,0.,12.0
1989-08-27T06:19:49.280 ,4,0,0.,12.0,0.,12.0,0.,12.0,0.,12.0
1989-08-27T06:20:01.280 ,3,1,0.,12.0,0.,12.0,0.,12.0,0.,12.0
1989-08-27T06:20:13.280 ,3,1,0.,12.0,0.,12.0,0.,12.0,0.,12.0
1989-08-27T06:20:25.280 ,3,0,0.,12.0,0.,12.0,0.,12.0,0.,12.0
1989-08-27T06:20:37.280 ,3,0,0.,12.0,0.,12.0,0.,12.0,0.,12.0
1989-08-27T06:20:49.280 ,2,1,0.,12.0,0.,12.0,0.,12.0,0.,12.0
1989-08-27T06:21:01.280 ,2,1,0.,12.0,0.,12.0,0.,12.0,0.,12.0
1989-08-27T06:21:13.280 ,2,0,0.,12.0,0.,12.0,0.,12.0,0.,12.0
1989-08-27T06:21:25.280 ,2,0,0.,12.0,0.,12.0,0.,12.0,0.,12.0
1989-08-27T06:21:37.280 ,1,1,0.,12.0,1.,12.0,0.,12.0,0.,12.0
1989-08-27T06:21:49.280 ,1,1,0.,12.0,0.,12.0,0.,12.0,0.,12.0
1989-08-27T06:22:01.280 ,1,0,0.,12.0,1.,12.0,0.,12.0,0.,12.0
1989-08-27T06:22:13.280 ,1,0,0.,12.0,1.,12.0,0.,12.0,0.,12.0
1989-08-27T06:22:25.280 ,0,1,0.,12.0,0.,12.0,0.,12.0,0.,12.0
1989-08-27T06:22:37.280 ,0,1,0.,12.0,0.,12.0,0.,12.0,0.,12.0
1989-08-27T06:22:49.280 ,0,0,0.,12.0,0.,12.0,0.,12.0,0.,12.0
1989-08-27T06:23:01.280 ,0,0,0.,12.0,0.,12.0,0.,12.0,0.,12.0
1989-08-27T06:23:13.280 ,0,1,0.,12.0,0.,12.0,0.,12.0,0.,12.0
1989-08-27T06:23:25.280 ,0,1,0.,12.0,0.,12.0,0.,12.0,0.,12.0
1989-08-27T06:23:37.280 ,0,0,0.,12.0,0.,12.0,0.,12.0,0.,12.0
1989-08-27T06:23:49.280 ,0,0,0.,12.0,0.,12.0,0.,12.0,0.,12.0
1989-08-27T06:24:01.280 ,1,1,0.,12.0,0.,12.0,0.,12.0,0.,12.0
1989-08-27T06:24:13.280 ,1,1,0.,12.0,0.,12.0,0.,12.0,0.,12.0
1989-08-27T06:24:25.280 ,1,0,0.,12.0,0.,12.0,0.,12.0,0.,12.0
1989-08-27T06:24:37.280 ,1,0,0.,12.0,0.,12.0,0.,12.0,0.,12.0
1989-08-27T06:24:49.280 ,2,1,0.,12.0,0.,12.0,0.,12.0,0.,12.0
1989-08-27T06:25:01.280 ,2,1,0.,12.0,0.,12.0,0.,12.0,0.,12.0
1989-08-27T06:25:13.280 ,2,0,0.,12.0,0.,12.0,0.,12.0,0.,12.0
1989-08-27T06:25:25.280 ,2,0,0.,12.0,0.,12.0,0.,12.0,0.,12.0
1989-08-27T06:25:37.280 ,3,1,0.,12.0,0.,12.0,0.,12.0,0.,12.0
1989-08-27T06:25:49.280 ,3,1,0.,12.0,0.,12.0,0.,12.0,0.,12.0
1989-08-27T06:26:01.280 ,3,0,0.,12.0,0.,12.0,0.,12.0,0.,12.0
1989-08-27T06:26:13.280 ,3,0,0.,12.0,0.,12.0,0.,12.0,0.,12.0
1989-08-27T06:26:25.280 ,4,1,0.,12.0,0.,12.0,0.,12.0,0.,12.0
1989-08-27T06:26:37.280 ,4,1,0.,12.0,0.,12.0,0.,12.0,0.,12.0
1989-08-27T06:26:49.280 ,4,0,0.,12.0,0.,12.0,0.,12.0,0.,12.0
1989-08-27T06:27:01.280 ,4,0,0.,12.0,0.,12.0,0.,12.0,0.,12.0
1989-08-27T06:27:13.280 ,5,1,0.,12.0,0.,12.0,0.,12.0,0.,12.0
1989-08-27T06:27:25.280 ,5,1,0.,12.0,0.,12.0,0.,12.0,0.,12.0
1989-08-27T06:27:37.280 ,5,0,0.,12.0,0.,12.0,0.,12.0,0.,12.0
1989-08-27T06:27:49.280 ,5,0,0.,12.0,0.,12.0,0.,12.0,0.,12.0
1989-08-27T06:28:01.280 ,6,1,0.,12.0,0.,12.0,0.,12.0,0.,12.0
1989-08-27T06:28:13.280 ,6,1,0.,12.0,0.,12.0,0.,12.0,0.,12.0
1989-08-27T06:28:25.280 ,6,0,0.,12.0,0.,12.0,0.,12.0,0.,12.0
1989-08-27T06:28:37.280 ,6,0,0.,12.0,0.,12.0,0.,12.0,0.,12.0
1989-08-27T06:28:49.280 ,7,1,0.,12.0,0.,12.0,0.,12.0,0.,12.0
1989-08-27T06:29:01.280 ,7,1,0.,12.0,0.,12.0,0.,12.0,0.,12.0
1989-08-27T06:29:13.280 ,7,0,0.,12.0,0.,12.0,0.,12.0,0.,12.0
1989-08-27T06:29:25.280 ,7,0,0.,12.0,0.,12.0,0.,12.0,0.,12.0
1989-08-27T06:29:37.280 ,7,1,0.,12.0,0.,12.0,0.,12.0,0.,12.0
1989-08-27T06:29:49.280 ,7,1,0.,12.0,0.,12.0,0.,12.0,0.,12.0
1989-08-27T06:30:01.280 ,7,0,0.,12.0,0.,12.0,0.,12.0,0.,12.0
1989-08-27T06:30:13.280 ,7,0,0.,12.0,0.,12.0,0.,12.0,0.,12.0
1989-08-27T06:30:25.280 ,6,1,0.,12.0,0.,12.0,0.,12.0,0.,12.0
1989-08-27T06:30:37.280 ,6,1,0.,12.0,0.,12.0,0.,12.0,0.,12.0
1989-08-27T06:30:49.280 ,6,0,0.,12.0,0.,12.0,0.,12.0,0.,12.0
1989-08-27T06:31:01.280 ,6,0,0.,12.0,0.,12.0,0.,12.0,0.,12.0
1989-08-27T06:31:13.280 ,5,1,0.,12.0,0.,12.0,0.,12.0,0.,12.0
1989-08-27T06:31:25.280 ,5,1,0.,12.0,0.,12.0,0.,12.0,0.,12.0
1989-08-27T06:31:37.280 ,5,0,0.,12.0,0.,12.0,0.,12.0,0.,12.0
1989-08-27T06:31:49.280 ,5,0,0.,12.0,0.,12.0,0.,12.0,0.,12.0
1989-08-27T06:32:01.280 ,4,1,0.,12.0,0.,12.0,0.,12.0,0.,12.0
1989-08-27T06:32:13.280 ,4,1,0.,12.0,0.,12.0,0.,12.0,0.,12.0
1989-08-27T06:32:25.280 ,4,0,0.,12.0,0.,12.0,0.,12.0,0.,12.0
1989-08-27T06:32:37.280 ,4,0,0.,12.0,0.,12.0,0.,12.0,0.,12.0
1989-08-27T06:32:49.280 ,3,1,0.,12.0,0.,12.0,0.,12.0,0.,12.0
1989-08-27T06:33:01.280 ,3,1,0.,12.0,0.,12.0,0.,12.0,0.,12.0
1989-08-27T06:33:13.280 ,3,0,0.,12.0,0.,12.0,0.,12.0,0.,12.0
1989-08-27T06:33:25.280 ,3,0,0.,12.0,0.,12.0,0.,12.0,0.,12.0
1989-08-27T06:33:37.280 ,2,1,0.,12.0,0.,12.0,0.,12.0,0.,12.0
1989-08-27T06:33:49.280 ,2,1,0.,12.0,0.,12.0,0.,12.0,0.,12.0
1989-08-27T06:34:01.280 ,2,0,0.,12.0,0.,12.0,0.,12.0,0.,12.0
1989-08-27T06:34:13.280 ,2,0,0.,12.0,0.,12.0,0.,12.0,0.,12.0
1989-08-27T06:34:25.280 ,1,1,0.,12.0,0.,12.0,0.,12.0,0.,12.0
1989-08-27T06:34:37.280 ,1,1,0.,12.0,0.,12.0,0.,12.0,0.,12.0
1989-08-27T06:34:49.280 ,1,0,0.,12.0,0.,12.0,0.,12.0,0.,12.0
1989-08-27T06:35:01.280 ,1,0,0.,12.0,0.,12.0,0.,12.0,0.,12.0
1989-08-27T06:35:13.280 ,0,1,0.,12.0,0.,12.0,0.,12.0,0.,12.0
1989-08-27T06:35:25.280 ,0,1,0.,12.0,0.,12.0,0.,12.0,0.,12.0
1989-08-27T06:35:37.280 ,0,0,0.,12.0,0.,12.0,0.,12.0,0.,12.0
1989-08-27T06:35:49.280 ,0,0,0.,12.0,0.,12.0,0.,12.0,0.,12.0
1989-08-27T06:36:01.280 ,0,1,0.,12.0,0.,12.0,0.,12.0,0.,12.0
1989-08-27T06:36:13.280 ,0,1,0.,12.0,0.,12.0,0.,12.0,0.,12.0
1989-08-27T06:36:25.280 ,0,0,0.,12.0,0.,12.0,0.,12.0,0.,12.0
1989-08-27T06:36:37.280 ,0,0,0.,12.0,0.,12.0,0.,12.0,0.,12.0
1989-08-27T06:36:49.280 ,1,1,0.,12.0,0.,12.0,0.,12.0,0.,12.0
1989-08-27T06:37:01.280 ,1,1,0.,12.0,0.,12.0,0.,12.0,0.,12.0
1989-08-27T06:37:13.280 ,1,0,0.,12.0,0.,12.0,0.,12.0,0.,12.0
1989-08-27T06:37:25.280 ,1,0,0.,12.0,0.,12.0,0.,12.0,0.,12.0
1989-08-27T06:37:37.280 ,2,1,0.,12.0,1.,12.0,0.,12.0,0.,12.0
1989-08-27T06:37:49.280 ,2,1,0.,12.0,0.,12.0,0.,12.0,0.,12.0
1989-08-27T06:38:01.280 ,2,0,0.,12.0,0.,12.0,0.,12.0,0.,12.0
1989-08-27T06:38:13.280 ,2,0,0.,12.0,0.,12.0,0.,12.0,0.,12.0
1989-08-27T06:38:25.270 ,3,1,0.,12.0,0.,12.0,0.,12.0,0.,12.0
1989-08-27T06:38:37.270 ,3,1,0.,12.0,0.,12.0,0.,12.0,0.,12.0
1989-08-27T06:38:49.270 ,3,0,0.,12.0,0.,12.0,0.,12.0,0.,12.0
1989-08-27T06:39:01.270 ,3,0,0.,12.0,0.,12.0,0.,12.0,0.,12.0
1989-08-27T06:39:13.270 ,4,1,0.,12.0,0.,12.0,0.,12.0,0.,12.0
1989-08-27T06:39:25.270 ,4,1,0.,12.0,0.,12.0,0.,12.0,0.,12.0
1989-08-27T06:39:37.270 ,4,0,0.,12.0,0.,12.0,0.,12.0,0.,12.0
1989-08-27T06:39:49.270 ,4,0,0.,12.0,0.,12.0,0.,12.0,0.,12.0
1989-08-27T06:40:01.270 ,5,1,0.,12.0,0.,12.0,0.,12.0,0.,12.0
1989-08-27T06:40:13.270 ,5,1,0.,12.0,0.,12.0,0.,12.0,0.,12.0
1989-08-27T06:40:25.270 ,5,0,0.,12.0,0.,12.0,0.,12.0,0.,12.0
1989-08-27T06:40:37.270 ,5,0,0.,12.0,0.,12.0,0.,12.0,0.,12.0
1989-08-27T06:40:49.270 ,6,1,0.,12.0,0.,12.0,0.,12.0,0.,12.0
1989-08-27T06:41:01.270 ,6,1,0.,12.0,0.,12.0,0.,12.0,0.,12.0
1989-08-27T06:41:13.270 ,6,0,0.,12.0,0.,12.0,0.,12.0,0.,12.0
1989-08-27T06:41:25.270 ,6,0,0.,12.0,0.,12.0,0.,12.0,0.,12.0
1989-08-27T06:41:37.270 ,7,1,0.,12.0,0.,12.0,0.,12.0,0.,12.0
1989-08-27T06:41:49.270 ,7,1,0.,12.0,0.,12.0,0.,12.0,0.,12.0
1989-08-27T06:42:01.270 ,7,0,0.,12.0,0.,12.0,0.,12.0,0.,12.0
1989-08-27T06:42:13.270 ,7,0,0.,12.0,0.,12.0,0.,12.0,0.,12.0
1989-08-27T06:42:25.270 ,7,1,0.,12.0,0.,12.0,0.,12.0,0.,12.0
1989-08-27T06:42:37.270 ,7,1,0.,12.0,0.,12.0,0.,12.0,0.,12.0
1989-08-27T06:42:49.270 ,7,0,0.,12.0,0.,12.0,0.,12.0,0.,12.0
1989-08-27T06:43:01.270 ,7,0,0.,12.0,0.,12.0,0.,12.0,0.,12.0
1989-08-27T06:43:13.270 ,6,1,0.,12.0,0.,12.0,0.,12.0,0.,12.0
1989-08-27T06:43:25.270 ,6,1,0.,12.0,0.,12.0,0.,12.0,0.,12.0
1989-08-27T06:43:37.270 ,6,0,0.,12.0,0.,12.0,0.,12.0,0.,12.0
1989-08-27T06:43:49.270 ,6,0,0.,12.0,0.,12.0,0.,12.0,0.,12.0
1989-08-27T06:44:01.270 ,5,1,0.,12.0,0.,12.0,0.,12.0,0.,12.0
1989-08-27T06:44:13.270 ,5,1,0.,12.0,0.,12.0,0.,12.0,0.,12.0
1989-08-27T06:44:25.270 ,5,0,0.,12.0,0.,12.0,0.,12.0,0.,12.0
1989-08-27T06:44:37.270 ,5,0,0.,12.0,0.,12.0,0.,12.0,0.,12.0
1989-08-27T06:44:49.270 ,4,1,0.,12.0,0.,12.0,0.,12.0,0.,12.0
1989-08-27T06:45:01.270 ,4,1,0.,12.0,0.,12.0,0.,12.0,0.,12.0
1989-08-27T06:45:13.270 ,4,0,0.,12.0,0.,12.0,0.,12.0,0.,12.0
1989-08-27T06:45:25.270 ,4,0,0.,12.0,0.,12.0,0.,12.0,0.,12.0
1989-08-27T06:45:37.270 ,3,1,0.,12.0,0.,12.0,0.,12.0,0.,12.0
1989-08-27T06:45:49.270 ,3,1,0.,12.0,0.,12.0,0.,12.0,0.,12.0
1989-08-27T06:46:01.270 ,3,0,0.,12.0,0.,12.0,0.,12.0,0.,12.0
1989-08-27T06:46:13.270 ,3,0,0.,12.0,0.,12.0,0.,12.0,0.,12.0
1989-08-27T06:46:25.270 ,2,1,0.,12.0,0.,12.0,0.,12.0,0.,12.0
1989-08-27T06:46:37.270 ,2,1,0.,12.0,0.,12.0,0.,12.0,0.,12.0
1989-08-27T06:46:49.270 ,2,0,0.,12.0,0.,12.0,0.,12.0,0.,12.0
1989-08-27T06:47:01.270 ,2,0,0.,12.0,0.,12.0,0.,12.0,0.,12.0
1989-08-27T06:47:13.270 ,1,1,0.,12.0,0.,12.0,0.,12.0,0.,12.0
1989-08-27T06:47:25.270 ,1,1,0.,12.0,0.,12.0,0.,12.0,0.,12.0
1989-08-27T06:47:37.270 ,1,0,0.,12.0,0.,12.0,0.,12.0,0.,12.0
1989-08-27T06:47:49.270 ,1,0,0.,12.0,0.,12.0,0.,12.0,0.,12.0
1989-08-27T06:48:01.270 ,0,1,0.,12.0,0.,12.0,0.,12.0,0.,12.0
1989-08-27T06:48:13.270 ,0,1,0.,12.0,0.,12.0,0.,12.0,0.,12.0
1989-08-27T06:48:25.270 ,0,0,0.,12.0,0.,12.0,0.,12.0,0.,12.0
1989-08-27T06:48:37.270 ,0,0,0.,12.0,0.,12.0,0.,12.0,0.,12.0
1989-08-27T06:48:49.270 ,0,1,0.,12.0,0.,12.0,0.,12.0,0.,12.0
1989-08-27T06:49:01.270 ,0,1,0.,12.0,0.,12.0,0.,12.0,0.,12.0
1989-08-27T06:49:13.270 ,0,0,0.,12.0,0.,12.0,0.,12.0,0.,12.0
1989-08-27T06:49:25.270 ,0,0,0.,12.0,0.,12.0,0.,12.0,0.,12.0
1989-08-27T06:49:37.270 ,1,1,0.,12.0,0.,12.0,0.,12.0,0.,12.0
1989-08-27T06:49:49.270 ,1,1,0.,12.0,0.,12.0,0.,12.0,0.,12.0
1989-08-27T06:50:01.270 ,1,0,0.,12.0,0.,12.0,0.,12.0,0.,12.0
1989-08-27T06:50:13.270 ,1,0,0.,12.0,0.,12.0,0.,12.0,0.,12.0
1989-08-27T06:50:25.270 ,2,1,0.,12.0,0.,12.0,0.,12.0,0.,12.0
1989-08-27T06:50:37.270 ,2,1,0.,12.0,0.,12.0,0.,12.0,0.,12.0
1989-08-27T06:50:49.270 ,2,0,0.,12.0,0.,12.0,0.,12.0,0.,12.0
1989-08-27T06:51:01.270 ,2,0,0.,12.0,0.,12.0,0.,12.0,0.,12.0
1989-08-27T06:51:13.270 ,3,1,0.,12.0,0.,12.0,0.,12.0,0.,12.0
1989-08-27T06:51:25.270 ,3,1,0.,12.0,0.,12.0,0.,12.0,0.,12.0
1989-08-27T06:51:37.270 ,3,0,0.,12.0,0.,12.0,0.,12.0,0.,12.0
1989-08-27T06:51:49.270 ,3,0,0.,12.0,0.,12.0,0.,12.0,0.,12.0
1989-08-27T06:52:01.270 ,4,1,0.,12.0,0.,12.0,0.,12.0,0.,12.0
1989-08-27T06:52:13.270 ,4,1,0.,12.0,0.,12.0,0.,12.0,0.,12.0
1989-08-27T06:52:25.270 ,4,0,0.,12.0,0.,12.0,0.,12.0,0.,12.0
1989-08-27T06:52:37.270 ,4,0,0.,12.0,0.,12.0,0.,12.0,0.,12.0
1989-08-27T06:52:49.270 ,5,1,0.,12.0,0.,12.0,0.,12.0,0.,12.0
1989-08-27T06:53:01.270 ,5,1,0.,12.0,0.,12.0,0.,12.0,0.,12.0
1989-08-27T06:53:13.270 ,5,0,0.,12.0,0.,12.0,0.,12.0,0.,12.0
1989-08-27T06:53:25.270 ,5,0,0.,12.0,0.,12.0,0.,12.0,0.,12.0
1989-08-27T06:53:37.270 ,6,1,0.,12.0,0.,12.0,0.,12.0,0.,12.0
1989-08-27T06:53:49.270 ,6,1,0.,12.0,0.,12.0,0.,12.0,0.,12.0
1989-08-27T06:54:01.270 ,6,0,0.,12.0,0.,12.0,0.,12.0,0.,12.0
1989-08-27T06:54:13.270 ,6,0,0.,12.0,0.,12.0,0.,12.0,0.,12.0
1989-08-27T06:54:25.270 ,7,1,0.,12.0,0.,12.0,0.,12.0,0.,12.0
1989-08-27T06:54:37.270 ,7,1,0.,12.0,0.,12.0,0.,12.0,0.,12.0
1989-08-27T06:54:49.270 ,7,0,0.,12.0,0.,12.0,0.,12.0,0.,12.0
1989-08-27T06:55:01.270 ,7,0,0.,12.0,0.,12.0,0.,12.0,0.,12.0
1989-08-27T06:55:13.270 ,7,1,0.,12.0,0.,12.0,0.,12.0,0.,12.0
1989-08-27T06:55:25.270 ,7,1,0.,12.0,0.,12.0,0.,12.0,0.,12.0
1989-08-27T06:55:37.270 ,7,0,0.,12.0,0.,12.0,0.,12.0,0.,12.0
1989-08-27T06:55:49.270 ,7,0,0.,12.0,0.,12.0,0.,12.0,0.,12.0
1989-08-27T06:56:01.270 ,6,1,0.,12.0,0.,12.0,0.,12.0,0.,12.0
1989-08-27T06:56:13.270 ,6,1,0.,12.0,0.,12.0,0.,12.0,0.,12.0
1989-08-27T06:56:25.270 ,6,0,0.,12.0,0.,12.0,0.,12.0,0.,12.0
1989-08-27T06:56:37.270 ,6,0,0.,12.0,0.,12.0,0.,12.0,0.,12.0
1989-08-27T06:56:49.270 ,5,1,0.,12.0,0.,12.0,0.,12.0,0.,12.0
1989-08-27T06:57:01.270 ,5,1,0.,12.0,0.,12.0,0.,12.0,0.,12.0
1989-08-27T06:57:13.270 ,5,0,0.,12.0,0.,12.0,0.,12.0,0.,12.0
1989-08-27T06:57:25.270 ,5,0,0.,12.0,0.,12.0,0.,12.0,0.,12.0
1989-08-27T06:57:37.270 ,4,1,0.,12.0,0.,12.0,0.,12.0,0.,12.0
1989-08-27T06:57:49.270 ,4,1,0.,12.0,0.,12.0,0.,12.0,0.,12.0
1989-08-27T06:58:01.270 ,4,0,0.,12.0,0.,12.0,0.,12.0,0.,12.0
1989-08-27T06:58:13.270 ,4,0,0.,12.0,0.,12.0,0.,12.0,0.,12.0
1989-08-27T06:58:25.270 ,3,1,0.,12.0,0.,12.0,0.,12.0,0.,12.0
1989-08-27T06:58:37.270 ,3,1,0.,12.0,0.,12.0,0.,12.0,0.,12.0
1989-08-27T06:58:49.270 ,3,0,0.,12.0,0.,12.0,0.,12.0,0.,12.0
1989-08-27T06:59:01.270 ,3,0,0.,12.0,0.,12.0,0.,12.0,0.,12.0
1989-08-27T06:59:13.270 ,2,1,0.,12.0,0.,12.0,0.,12.0,0.,12.0
1989-08-27T06:59:25.270 ,2,1,0.,12.0,0.,12.0,0.,12.0,0.,12.0
1989-08-27T06:59:37.270 ,2,0,0.,12.0,0.,12.0,0.,12.0,0.,12.0
1989-08-27T06:59:49.270 ,2,0,0.,12.0,0.,12.0,0.,12.0,0.,12.0
1989-08-27T07:00:01.270 ,1,1,0.,12.0,0.,12.0,0.,12.0,0.,12.0
1989-08-27T07:00:13.270 ,1,1,0.,12.0,0.,12.0,0.,12.0,0.,12.0
1989-08-27T07:00:25.270 ,1,0,0.,12.0,0.,12.0,0.,12.0,0.,12.0
1989-08-27T07:00:37.270 ,1,0,0.,12.0,0.,12.0,0.,12.0,0.,12.0
1989-08-27T07:00:49.270 ,0,1,0.,12.0,0.,12.0,0.,12.0,0.,12.0
1989-08-27T07:01:01.270 ,0,1,0.,12.0,0.,12.0,0.,12.0,0.,12.0
1989-08-27T07:01:13.270 ,0,0,0.,12.0,0.,12.0,0.,12.0,0.,12.0
1989-08-27T07:01:25.270 ,0,0,0.,12.0,0.,12.0,0.,12.0,0.,12.0
1989-08-27T07:01:37.270 ,0,1,0.,12.0,0.,12.0,0.,12.0,0.,12.0
1989-08-27T07:01:49.270 ,0,1,0.,12.0,0.,12.0,0.,12.0,0.,12.0
1989-08-27T07:02:01.270 ,0,0,0.,12.0,0.,12.0,0.,12.0,0.,12.0
1989-08-27T07:02:13.270 ,0,0,0.,12.0,0.,12.0,0.,12.0,0.,12.0
1989-08-27T07:02:25.270 ,1,1,0.,12.0,0.,12.0,0.,12.0,0.,12.0
1989-08-27T07:02:37.270 ,1,1,0.,12.0,0.,12.0,0.,12.0,0.,12.0
1989-08-27T07:02:49.270 ,1,0,0.,12.0,0.,12.0,0.,12.0,0.,12.0
1989-08-27T07:03:01.270 ,1,0,0.,12.0,0.,12.0,0.,12.0,0.,12.0
1989-08-27T07:03:13.270 ,2,1,0.,12.0,0.,12.0,0.,12.0,0.,12.0
1989-08-27T07:03:25.270 ,2,1,0.,12.0,0.,12.0,0.,12.0,0.,12.0
1989-08-27T07:03:37.270 ,2,0,0.,12.0,0.,12.0,0.,12.0,0.,12.0
1989-08-27T07:03:49.270 ,2,0,0.,12.0,0.,12.0,0.,12.0,0.,12.0
1989-08-27T07:04:01.270 ,3,1,0.,12.0,0.,12.0,0.,12.0,0.,12.0
1989-08-27T07:04:13.270 ,3,1,0.,12.0,0.,12.0,0.,12.0,0.,12.0
1989-08-27T07:04:25.270 ,3,0,0.,12.0,0.,12.0,0.,12.0,0.,12.0
1989-08-27T07:04:37.270 ,3,0,0.,12.0,0.,12.0,0.,12.0,0.,12.0
1989-08-27T07:04:49.270 ,4,1,0.,12.0,0.,12.0,0.,12.0,0.,12.0
1989-08-27T07:05:01.270 ,4,1,0.,12.0,0.,12.0,0.,12.0,0.,12.0
1989-08-27T07:05:13.270 ,4,0,0.,12.0,0.,12.0,0.,12.0,0.,12.0
1989-08-27T07:05:25.270 ,4,0,0.,12.0,0.,12.0,0.,12.0,0.,12.0
1989-08-27T07:05:37.270 ,5,1,0.,12.0,0.,12.0,0.,12.0,0.,12.0
1989-08-27T07:05:49.270 ,5,1,0.,12.0,0.,12.0,0.,12.0,0.,12.0
1989-08-27T07:06:01.270 ,5,0,0.,12.0,0.,12.0,0.,12.0,0.,12.0
1989-08-27T07:06:13.270 ,5,0,0.,12.0,0.,12.0,0.,12.0,0.,12.0
1989-08-27T07:06:25.270 ,6,1,0.,12.0,0.,12.0,0.,12.0,0.,12.0
1989-08-27T07:06:37.270 ,6,1,0.,12.0,0.,12.0,0.,12.0,0.,12.0
1989-08-27T07:06:49.270 ,6,0,0.,12.0,0.,12.0,0.,12.0,0.,12.0
1989-08-27T07:07:01.270 ,6,0,0.,12.0,0.,12.0,0.,12.0,0.,12.0
1989-08-27T07:07:13.270 ,7,1,0.,12.0,0.,12.0,0.,12.0,0.,12.0
1989-08-27T07:07:25.270 ,7,1,0.,12.0,0.,12.0,0.,12.0,0.,12.0
1989-08-27T07:07:37.270 ,7,0,0.,12.0,0.,12.0,0.,12.0,0.,12.0
1989-08-27T07:07:49.270 ,7,0,0.,12.0,0.,12.0,0.,12.0,0.,12.0
1989-08-27T07:08:01.270 ,7,1,0.,12.0,0.,12.0,0.,12.0,0.,12.0
1989-08-27T07:08:13.270 ,7,1,0.,12.0,0.,12.0,0.,12.0,0.,12.0
1989-08-27T07:08:25.270 ,7,0,0.,12.0,0.,12.0,0.,12.0,0.,12.0
1989-08-27T07:08:37.270 ,7,0,0.,12.0,0.,12.0,0.,12.0,0.,12.0
1989-08-27T07:08:49.270 ,6,1,0.,12.0,0.,12.0,0.,12.0,0.,12.0
1989-08-27T07:09:01.270 ,6,1,0.,12.0,0.,12.0,0.,12.0,0.,12.0
1989-08-27T07:09:13.270 ,6,0,0.,12.0,0.,12.0,0.,12.0,0.,12.0
1989-08-27T07:09:25.270 ,6,0,0.,12.0,0.,12.0,0.,12.0,0.,12.0
1989-08-27T07:09:37.270 ,5,1,0.,12.0,0.,12.0,0.,12.0,0.,12.0
1989-08-27T07:09:49.270 ,5,1,0.,12.0,0.,12.0,0.,12.0,0.,12.0
1989-08-27T07:10:01.270 ,5,0,0.,12.0,0.,12.0,0.,12.0,0.,12.0
1989-08-27T07:10:13.270 ,5,0,0.,12.0,0.,12.0,0.,12.0,0.,12.0
1989-08-27T07:10:25.270 ,4,1,0.,12.0,0.,12.0,0.,12.0,0.,12.0
1989-08-27T07:10:37.270 ,4,1,0.,12.0,0.,12.0,0.,12.0,0.,12.0
1989-08-27T07:10:49.270 ,4,0,0.,12.0,0.,12.0,0.,12.0,0.,12.0
1989-08-27T07:11:01.270 ,4,0,0.,12.0,0.,12.0,0.,12.0,0.,12.0
1989-08-27T07:11:13.270 ,3,1,0.,12.0,0.,12.0,0.,12.0,0.,12.0
1989-08-27T07:11:25.270 ,3,1,0.,12.0,0.,12.0,0.,12.0,0.,12.0
1989-08-27T07:11:37.270 ,3,0,0.,12.0,0.,12.0,0.,12.0,0.,12.0
1989-08-27T07:11:49.270 ,3,0,0.,12.0,0.,12.0,0.,12.0,0.,12.0
1989-08-27T07:12:01.270 ,2,1,0.,12.0,0.,12.0,0.,12.0,0.,12.0
1989-08-27T07:12:13.270 ,2,1,0.,12.0,0.,12.0,0.,12.0,0.,12.0
1989-08-27T07:12:25.270 ,2,0,0.,12.0,0.,12.0,0.,12.0,0.,12.0
1989-08-27T07:12:37.270 ,2,0,0.,12.0,0.,12.0,0.,12.0,0.,12.0
1989-08-27T07:12:49.270 ,1,1,0.,12.0,0.,12.0,0.,12.0,0.,12.0
1989-08-27T07:13:01.270 ,1,1,0.,12.0,0.,12.0,0.,12.0,0.,12.0
1989-08-27T07:13:13.270 ,1,0,0.,12.0,0.,12.0,0.,12.0,0.,12.0
1989-08-27T07:13:25.270 ,1,0,0.,12.0,0.,12.0,0.,12.0,0.,12.0
1989-08-27T07:13:37.270 ,0,1,0.,12.0,0.,12.0,0.,12.0,0.,12.0
1989-08-27T07:13:49.270 ,0,1,0.,12.0,0.,12.0,0.,12.0,0.,12.0
1989-08-27T07:14:01.270 ,0,0,0.,12.0,0.,12.0,0.,12.0,0.,12.0
1989-08-27T07:14:13.270 ,0,0,0.,12.0,0.,12.0,0.,12.0,0.,12.0
1989-08-27T07:14:25.270 ,0,1,0.,12.0,0.,12.0,0.,12.0,0.,12.0
1989-08-27T07:14:37.270 ,0,1,0.,12.0,0.,12.0,0.,12.0,0.,12.0
1989-08-27T07:14:49.270 ,0,0,0.,12.0,0.,12.0,0.,12.0,0.,12.0
1989-08-27T07:15:01.270 ,0,0,0.,12.0,0.,12.0,0.,12.0,0.,12.0
1989-08-27T07:15:13.270 ,1,1,0.,12.0,0.,12.0,0.,12.0,0.,12.0
1989-08-27T07:15:25.270 ,1,1,0.,12.0,0.,12.0,0.,12.0,0.,12.0
1989-08-27T07:15:37.270 ,1,0,0.,12.0,0.,12.0,0.,12.0,0.,12.0
1989-08-27T07:15:49.270 ,1,0,0.,12.0,0.,12.0,0.,12.0,0.,12.0
1989-08-27T07:16:01.270 ,2,1,0.,12.0,0.,12.0,0.,12.0,0.,12.0
1989-08-27T07:16:13.270 ,2,1,0.,12.0,0.,12.0,0.,12.0,0.,12.0
1989-08-27T07:16:25.270 ,2,0,0.,12.0,0.,12.0,0.,12.0,0.,12.0
1989-08-27T07:16:37.270 ,2,0,0.,12.0,0.,12.0,0.,12.0,0.,12.0
1989-08-27T07:16:49.270 ,3,1,0.,12.0,0.,12.0,0.,12.0,0.,12.0
1989-08-27T07:17:01.270 ,3,1,0.,12.0,0.,12.0,0.,12.0,0.,12.0
1989-08-27T07:17:13.270 ,3,0,0.,12.0,0.,12.0,0.,12.0,0.,12.0
1989-08-27T07:17:25.270 ,3,0,0.,12.0,0.,12.0,0.,12.0,0.,12.0